Погода в Чунцине

Китай     29°31′55″N   106°30′49″E
темп.,
°C
ветер,
м/с
пор.,
м/с
влажн.,
%
обл.,
%
осадки,
мм/ч
давл.,
гПа
погр.,
м
14 июня, пн
пн1423:00+29в127696 0.1 99737
02:00+27вюв117819 0.1 99725
05:00+26ююв1181100 0.0 99614
08:00+28ююв1274100 0.0 997278
11:00+32ю4651100 0.0 9971641
14:00+34ю4749100 0.0 9951817
17:00+32ююв4853100 0.0 993703
20:00+30в3664100 0.0 994234
15 июня, вт
вт1523:00+29в126943 0.0 99551
02:00+28вюв1173100 0.0 99451
05:00+27ююз117599 0.0 99446
08:00+28ююв1169100 0.0 996289
11:00+33ююв245291 0.0 9961490
14:00+35ююв344764 0.0 9941825
17:00+35ююв344896 0.0 9931469
20:00+32вюв115679 0.0 99421
16 июня, ср
ср1623:00+30всв116591 0.0 99615
02:00+29вюв1169100 0.0 99519
05:00+28ю117481 0.0 99623
08:00+29юв1169100 0.0 998325
11:00+34ююв355088 0.1 9981671
14:00+36ю3345100 0.1 9961996
17:00+36юз1247100 0.0 9951589
20:00+32ссз2464100 0.1 997239
17 июня, чт
чт1723:00+30сз137385 0.5 999169
02:00+27зсз2386100 2.6 999209
05:00+25з1292100 4.8 1000295
08:00+23юз3591100 6.7 1003448
11:00+23юз3586100 0.1 1003553
14:00+23юз3581100 0.1 1003665
17:00+24зюз2480100 0.1 1003647
20:00+23юз2382100 0.1 1004406
18 июня, пт
пт1823:00+23юз248387 0.0 1005388
02:00+22юз3686100 0.4 1004432
05:00+21юз2489100 1.3 1004329
08:00+21ююз2389100 1.6 1005286
11:00+21юз2485100 0.1 1006502
14:00+23зюз2381100 0.2 1004666
17:00+22сз227999 0.1 1004524
20:00+22ссз228175 0.1 1004307